When you browse on this site, cookies collect data to enhance your experience and personalize the content and advertising you see.
Visit our Privacy Policy to learn more. By continuing to use the site, you agree to this use of cookies and data.
  • In Deutschland
  • Länderverzeichnis
  • Für 7 Tage
  • Wassertemperatur
  • Satellitenkarten
  • Wetterkarte
  • Widgets
  • user-avatar
    Anmelden

    Stündliche Wetter Karachi

    Heute, 18 November, Sonntag

    Zeit Temperatur Niederschläge Wind Luftdruck Luftfeuchtigkeit
    00:00 +11°C° 0.4 mm 1 m/S 514 mmHg 85%
    01:00 +11°C° 0.4 mm 1 m/S 513 mmHg 85%
    02:00 +11°C° 0 mm 1 m/S 513 mmHg 83%
    03:00 +10°C° 0.4 mm 1 m/S 513 mmHg 83%
    04:00 +10°C° 0.4 mm 1 m/S 513 mmHg 84%
    05:00 +10°C° 0.4 mm 1 m/S 513 mmHg 84%
    06:00 +11°C° 0.2 mm 1 m/S 514 mmHg 79%
    07:00 +12°C° 0.2 mm 1 m/S 515 mmHg 75%
    08:00 +14°C° 0 mm 1 m/S 516 mmHg 70%
    09:00 +14°C° 0.2 mm 1 m/S 517 mmHg 67%
    10:00 +15°C° 0.2 mm 1 m/S 517 mmHg 65%
    11:00 +16°C° 0.2 mm 2 m/S 517 mmHg 62%
    12:00 +16°C° 0.7 mm 2 m/S 517 mmHg 63%
    13:00 +16°C° 0.7 mm 2 m/S 516 mmHg 65%
    14:00 +17°C° 0.7 mm 3 m/S 516 mmHg 66%
    15:00 +16°C° 2 mm 2 m/S 515 mmHg 71%
    16:00 +15°C° 2 mm 2 m/S 515 mmHg 76%
    17:00 +13°C° 2 mm 2 m/S 514 mmHg 81%
    18:00 +13°C° 2.4 mm 2 m/S 514 mmHg 83%
    19:00 +12°C° 2.4 mm 1 m/S 514 mmHg 85%
    20:00 +11°C° 2.4 mm 1 m/S 514 mmHg 87%
    21:00 +10°C° 2 mm 1 m/S 515 mmHg 87%
    22:00 +10°C° 2 mm 1 m/S 515 mmHg 87%
    23:00 +10°C° 2 mm 1 m/S 515 mmHg 87%

    Morgen, 19 November, Montag

    Zeit Temperatur Niederschläge Wind Luftdruck Luftfeuchtigkeit
    00:00 +9°C° 3.6 mm 1 m/S 515 mmHg 89%
    01:00 +9°C° 3.6 mm 1 m/S 515 mmHg 90%
    02:00 +9°C° 3.6 mm 1 m/S 514 mmHg 91%
    03:00 +9°C° 3.5 mm 1 m/S 514 mmHg 90%
    04:00 +9°C° 3.5 mm 1 m/S 514 mmHg 90%
    05:00 +9°C° 3.5 mm 1 m/S 514 mmHg 90%
    06:00 +9°C° 3.1 mm 1 m/S 514 mmHg 90%
    07:00 +9°C° 3.1 mm 1 m/S 515 mmHg 90%
    08:00 +9°C° 3.1 mm 1 m/S 515 mmHg 90%
    09:00 +9°C° 2.4 mm 1 m/S 515 mmHg 90%
    10:00 +9°C° 2.4 mm 1 m/S 516 mmHg 89%
    11:00 +9°C° 2.4 mm 1 m/S 516 mmHg 89%
    12:00 +10°C° 1 mm 1 m/S 516 mmHg 86%
    13:00 +11°C° 1 mm 1 m/S 516 mmHg 82%
    14:00 +11°C° 1 mm 1 m/S 515 mmHg 79%
    15:00 +11°C° 0.1 mm 1 m/S 515 mmHg 78%
    16:00 +11°C° 0.1 mm 1 m/S 515 mmHg 77%
    17:00 +12°C° 0.1 mm 1 m/S 514 mmHg 76%
    18:00 +11°C° 0 mm 1 m/S 514 mmHg 79%
    19:00 +9°C° 0 mm 0 m/S 514 mmHg 82%
    20:00 +9°C° 0 mm 0 m/S 514 mmHg 85%
    21:00 +9°C° 0 mm 0 m/S 515 mmHg 84%
    22:00 +8°C° 0 mm 0 m/S 515 mmHg 84%
    23:00 +8°C° 0 mm 0 m/S 515 mmHg 84%

    übermorgen, 20 November, Dienstag

    Zeit Temperatur Niederschläge Wind Luftdruck Luftfeuchtigkeit
    00:00 +8°C° 0.1 mm 0 m/S 515 mmHg 83%
    01:00 +8°C° 0.1 mm 0 m/S 514 mmHg 82%
    02:00 +9°C° 0.1 mm 1 m/S 513 mmHg 82%
    03:00 +8°C° 0 mm 1 m/S 513 mmHg 82%
    04:00 +8°C° 0 mm 1 m/S 513 mmHg 82%
    05:00 +8°C° 0 mm 1 m/S 513 mmHg 82%
    06:00 +9°C° 0 mm 1 m/S 514 mmHg 79%
    07:00 +10°C° 0 mm 1 m/S 515 mmHg 76%
    08:00 +11°C° 0 mm 1 m/S 516 mmHg 72%
    09:00 +12°C° 0 mm 1 m/S 517 mmHg 69%
    10:00 +13°C° 0 mm 1 m/S 517 mmHg 66%
    11:00 +14°C° 0 mm 1 m/S 518 mmHg 63%
    12:00 +15°C° 0.2 mm 2 m/S 517 mmHg 65%
    13:00 +15°C° 0.2 mm 2 m/S 517 mmHg 66%
    14:00 +15°C° 0.2 mm 2 m/S 516 mmHg 68%
    15:00 +14°C° 0.3 mm 2 m/S 515 mmHg 70%
    16:00 +14°C° 0.3 mm 2 m/S 515 mmHg 72%
    17:00 +14°C° 0.3 mm 2 m/S 514 mmHg 73%
    18:00 +13°C° 0.3 mm 2 m/S 514 mmHg 78%
    19:00 +12°C° 0.3 mm 1 m/S 514 mmHg 82%
    20:00 +11°C° 0.3 mm 1 m/S 514 mmHg 86%
    21:00 +11°C° 0.5 mm 1 m/S 515 mmHg 86%
    22:00 +11°C° 0.5 mm 1 m/S 515 mmHg 87%
    23:00 +10°C° 0.5 mm 1 m/S 516 mmHg 87%

    21 November, Mittwoch

    Zeit Temperatur Niederschläge Wind Luftdruck Luftfeuchtigkeit
    00:00 +10°C° 0.6 mm 1 m/S 515 mmHg 87%
    01:00 +10°C° 0.6 mm 1 m/S 515 mmHg 87%
    02:00 +10°C° 0.6 mm 1 m/S 514 mmHg 87%
    03:00 +10°C° 0.9 mm 1 m/S 514 mmHg 87%
    04:00 +9°C° 0.9 mm 1 m/S 514 mmHg 87%
    05:00 +9°C° 0.9 mm 1 m/S 514 mmHg 87%
    06:00 +10°C° 0.8 mm 1 m/S 515 mmHg 84%
    07:00 +10°C° 0.8 mm 0 m/S 515 mmHg 81%
    08:00 +10°C° 0.8 mm 0 m/S 516 mmHg 79%
    09:00 +11°C° 0.6 mm 0 m/S 516 mmHg 75%
    10:00 +13°C° 0.6 mm 1 m/S 517 mmHg 72%
    11:00 +14°C° 0.6 mm 1 m/S 517 mmHg 68%
    12:00 +14°C° 0.4 mm 1 m/S 517 mmHg 68%
    13:00 +15°C° 0.4 mm 1 m/S 516 mmHg 68%
    14:00 +15°C° 0.4 mm 2 m/S 515 mmHg 67%
    15:00 +15°C° 0.9 mm 2 m/S 515 mmHg 70%
    16:00 +14°C° 0.9 mm 2 m/S 514 mmHg 73%
    17:00 +14°C° 0.9 mm 2 m/S 514 mmHg 76%
    18:00 +13°C° 1.3 mm 1 m/S 514 mmHg 79%
    19:00 +12°C° 1.3 mm 1 m/S 514 mmHg 82%
    20:00 +11°C° 1.3 mm 1 m/S 514 mmHg 85%
    21:00 +11°C° 1.5 mm 1 m/S 514 mmHg 85%
    22:00 +11°C° 1.5 mm 1 m/S 514 mmHg 86%
    23:00 +11°C° 1.5 mm 1 m/S 514 mmHg 86%

    22 November, Donnerstag

    Zeit Temperatur Niederschläge Wind Luftdruck Luftfeuchtigkeit
    00:00 +10°C° 0.8 mm 1 m/S 514 mmHg 86%
    01:00 +10°C° 0.8 mm 1 m/S 513 mmHg 85%
    02:00 +10°C° 0.8 mm 1 m/S 513 mmHg 85%
    03:00 +10°C° 0.2 mm 1 m/S 512 mmHg 84%
    04:00 +10°C° 0.2 mm 1 m/S 512 mmHg 83%
    05:00 +10°C° 0.2 mm 1 m/S 512 mmHg 82%
    06:00 +11°C° 0.1 mm 1 m/S 513 mmHg 78%
    07:00 +12°C° 0.1 mm 1 m/S 514 mmHg 75%
    08:00 +12°C° 0.1 mm 0 m/S 515 mmHg 71%
    09:00 +14°C° 0.4 mm 1 m/S 515 mmHg 68%
    10:00 +15°C° 0.4 mm 1 m/S 516 mmHg 66%
    11:00 +16°C° 0.4 mm 2 m/S 516 mmHg 63%
    12:00 +16°C° 1.3 mm 2 m/S 515 mmHg 67%
    13:00 +15°C° 1.3 mm 2 m/S 515 mmHg 71%
    14:00 +15°C° 1.3 mm 2 m/S 514 mmHg 75%
    15:00 +15°C° 1 mm 2 m/S 513 mmHg 76%
    16:00 +15°C° 1 mm 2 m/S 513 mmHg 76%
    17:00 +14°C° 1 mm 2 m/S 512 mmHg 77%
    18:00 +14°C° 0.5 mm 2 m/S 512 mmHg 81%
    19:00 +13°C° 0.5 mm 1 m/S 513 mmHg 84%
    20:00 +12°C° 0.5 mm 1 m/S 513 mmHg 87%
    21:00 +12°C° 0.5 mm 1 m/S 513 mmHg 87%
    22:00 +11°C° 0.5 mm 1 m/S 513 mmHg 87%
    23:00 +11°C° 0.5 mm 1 m/S 513 mmHg 88%

    23 November, Freitag

    Zeit Temperatur Niederschläge Wind Luftdruck Luftfeuchtigkeit
    00:00 +11°C° 0.2 mm 1 m/S 513 mmHg 87%
    01:00 +11°C° 0.2 mm 1 m/S 512 mmHg 87%
    02:00 +11°C° 0.2 mm 1 m/S 511 mmHg 86%
    03:00 +10°C° 0 mm 1 m/S 511 mmHg 86%
    04:00 +10°C° 0 mm 1 m/S 511 mmHg 86%
    05:00 +9°C° 0 mm 0 m/S 511 mmHg 86%
    06:00 +11°C° 0 mm 1 m/S 513 mmHg 82%
    07:00 +12°C° 0 mm 1 m/S 514 mmHg 78%
    08:00 +13°C° 0 mm 1 m/S 515 mmHg 73%
    09:00 +14°C° 0.7 mm 1 m/S 515 mmHg 74%
    10:00 +14°C° 0.7 mm 2 m/S 515 mmHg 74%
    11:00 +14°C° 0.7 mm 2 m/S 516 mmHg 74%
    12:00 +14°C° 2.2 mm 2 m/S 515 mmHg 76%
    13:00 +13°C° 2.2 mm 2 m/S 514 mmHg 79%
    14:00 +12°C° 2.2 mm 2 m/S 513 mmHg 81%
    15:00 +12°C° 2.1 mm 2 m/S 513 mmHg 81%
    16:00 +12°C° 2.1 mm 2 m/S 513 mmHg 80%
    17:00 +12°C° 2.1 mm 2 m/S 513 mmHg 80%
    18:00 +11°C° 0.8 mm 1 m/S 513 mmHg 82%
    19:00 +10°C° 0.8 mm 1 m/S 513 mmHg 85%
    20:00 +10°C° 0.8 mm 1 m/S 513 mmHg 87%
    21:00 +10°C° 0.3 mm 1 m/S 513 mmHg 87%
    22:00 +9°C° 0.3 mm 1 m/S 513 mmHg 87%
    23:00 +9°C° 0.3 mm 1 m/S 514 mmHg 86%
    Mehr zeigen